Location: Albany
(35.0000°S, 118.0000°E)
Time: 15:18:15
(UTC-04:00)

Transit 2A - Visible Passes

Search period start: 24 April 2014 00:00
Search period end: 04 May 2014 00:00
Orbit: 600 x 963 km, 66.7° (Epoch: 23 April)

Date Brightness Start Highest point End Pass type
(mag) Time Alt. Az. Time Alt. Az. Time Alt. Az.
24 Apr 7.7 07:18:26 10° S 07:22:09 24° SSE 07:22:09 24° SSE visible
24 Apr 8.6 09:01:01 10° SW 09:02:43 19° SW 09:02:43 19° SW visible
25 Apr 7.8 06:45:32 10° S 06:49:52 19° SE 06:50:10 19° SE visible
25 Apr 7.8 08:27:28 10° SSW 08:30:45 33° SW 08:30:45 33° SW visible
26 Apr 8.1 06:12:58 10° SSE 06:16:06 14° SE 06:18:21 12° ESE visible
26 Apr 6.8 07:54:02 10° SSW 07:58:56 56° S 07:58:56 56° S visible
26 Apr 9.3 09:39:27 10° WSW 09:39:32 10° WSW 09:39:32 10° WSW visible
27 Apr 6.5 07:20:42 10° SSW 07:26:53 55° ESE 07:27:20 54° ESE visible
27 Apr 8.6 09:04:59 10° SW 09:07:56 20° W 09:07:56 20° W visible
28 Apr 6.9 06:47:28 10° SSW 06:53:21 40° ESE 06:55:59 28° ENE visible
28 Apr 7.8 08:30:58 10° SW 08:36:32 33° WNW 08:36:37 33° WNW visible
29 Apr 7.3 06:14:21 10° S 06:19:45 29° SE 06:25:04 11° ENE visible
29 Apr 7.3 07:57:12 10° SW 08:03:15 47° WNW 08:05:44 32° NNW visible
30 Apr 6.7 07:23:35 10° SSW 07:29:53 68° WNW 07:35:32 13° NNE visible
01 May 6.4 06:50:06 10° SSW 06:56:29 87° ESE 07:02:51 10° NNE visible
01 May 9.2 08:36:15 10° WSW 08:38:59 13° WNW 08:41:42 10° NW visible
02 May 6.5 06:16:43 10° SSW 06:23:01 63° ESE 06:29:19 10° NE visible
02 May 8.8 08:01:25 10° WSW 08:05:48 20° WNW 08:10:09 10° NNW visible
03 May 6.8 05:43:26 10° SSW 05:49:30 45° ESE 05:55:34 10° NE visible
03 May 8.4 07:27:15 10° SW 07:32:34 29° WNW 07:37:51 10° NNW visible
